Change the Weather History Date:

Thursday, November 1, 2012

  Actual Average Record
Temperature  
Mean Temperature 74 °F -  
Max Temperature 96 °F - - ()
Min Temperature 53 °F - - ()
Cooling Degree Days 10    
Growing Degree Days 24 (Base 50)    
Moisture  
Dew Point 47 °F    
Average Humidity 46    
Maximum Humidity 94    
Minimum Humidity 5    
Precipitation  
Precipitation 0.00 in - - ()
Sea Level Pressure  
Sea Level Pressure 29.73 in    
Wind  
Wind Speed 6 mph ()    
Max Wind Speed 22 mph    
Max Gust Speed 33 mph    
Visibility 6.4 miles    
Events Fog , Rain    
T = Trace of Precipitation, MM = Missing Value Source: Averaged Metar Reports

Daily Weather History Graph

Daily Weather History Graph

Search for Another Location

Airport or City:

Trip Planner

Search our weather history database for the weather conditions in past years. The results will help you decide how hot, cold, wet, or windy it might be!

Date:

Astronomy

Nov. 01, 2012 Rise Set
Actual Time 5:53 AM AEDT 7:19 PM AEDT
Civil Twilight 5:27 AM AEDT 7:45 PM AEDT
Nautical Twilight 4:56 AM AEDT 8:16 PM AEDT
Astronomical Twilight 4:24 AM AEDT 8:49 PM AEDT
Moon 9:29 PM AEDT (11/1) 7:11 AM AEDT (11/1)
Length of Visible Light 14h 17m
Length of Day
13h 25m
Waning Gibbous, 96% of the Moon is Illuminated
Nov 1
Waning Gibbous
Nov 7
Last Quarter
Nov 14
New
Nov 21
First Quarter
Nov 29
Full

Hourly Weather History & Observations

Time (AEDT) Temp. Dew Point Humidity Pressure Visibility Wind Dir Wind Speed Gust Speed Precip Events Conditions
12:00 AM 60 °F 56 °F 82% 29.92 in - Calm Calm - -  
12:00 AM 60.8 °F 55.4 °F 82% 29.92 in 6.2 mi Calm Calm - N/A   Unknown
1:00 AM 57.2 °F 55.4 °F 94% 29.89 in 6.2 mi NNE 2.3 mph - N/A   Unknown
2:00 AM 57 °F 53 °F 83% 29.87 in - Calm Calm - -  
2:00 AM 57.2 °F 53.6 °F 88% 29.86 in 6.2 mi Calm Calm - N/A   Unknown
2:30 AM 55.4 °F 53.6 °F 94% 29.86 in 6.2 mi Calm Calm - N/A   Unknown
3:00 AM 57 °F 54 °F 86% 29.86 in - Calm Calm - -  
3:00 AM 57.2 °F 53.6 °F 88% 29.86 in 6.2 mi Calm Calm - N/A   Unknown
3:30 AM 55.4 °F 51.8 °F 88% 29.83 in 6.2 mi Calm Calm - N/A   Unknown
4:00 AM 53.6 °F 51.8 °F 94% 29.83 in 6.2 mi Calm Calm - N/A   Unknown
4:30 AM 53.6 °F 51.8 °F 94% 29.83 in 6.2 mi NNW 5.8 mph - N/A   Unknown
5:00 AM 57 °F 55 °F 92% 29.83 in - NNW 5.8 mph - -  
5:00 AM 57.2 °F 55.4 °F 94% 29.83 in 6.2 mi NNW 5.8 mph - N/A   Unknown
5:30 AM 55.4 °F 53.6 °F 94% 29.83 in 6.2 mi NNW 3.5 mph - N/A   Unknown
6:00 AM 54 °F 52 °F 90% 29.84 in 9 mi Calm Calm - - Fog Patches of Fog
6:00 AM 53.6 °F 51.8 °F 94% 29.83 in 6.2 mi Calm Calm - N/A Fog Patches of Fog
6:30 AM 55.4 °F 53.6 °F 94% 29.83 in 6.2 mi Calm Calm - N/A Fog Partly Cloudy
7:00 AM 59.0 °F 57.2 °F 94% 29.83 in - Calm Calm - N/A   Clear
7:30 AM 64.4 °F 57.2 °F 77% 29.83 in - North 3.5 mph - N/A   Clear
8:00 AM 67 °F 57 °F 63% 29.83 in - NNW 5.8 mph - -  
8:00 AM 68.0 °F 57.2 °F 68% 29.83 in - NNW 5.8 mph - N/A   Clear
8:30 AM 69.8 °F 55.4 °F 60% 29.83 in - NNW 6.9 mph - N/A   Clear
9:00 AM 74 °F 53 °F 37% 29.83 in 9 mi NW 6.9 mph - -   Haze
9:00 AM 73.4 °F 53.6 °F 50% 29.83 in - NW 6.9 mph - N/A   Clear
9:30 AM 77.0 °F 53.6 °F 44% 29.80 in - NNW 8.1 mph - N/A   Clear
10:00 AM 77.0 °F 51.8 °F 41% 29.80 in - NNW 9.2 mph - N/A   Clear
10:30 AM 82.4 °F 51.8 °F 35% 29.77 in - NNW 10.4 mph - N/A   Clear
11:00 AM 86 °F 50 °F 19% 29.77 in - NNW 10.4 mph - -  
11:00 AM 86.0 °F 50.0 °F 29% 29.77 in - NNW 10.4 mph - N/A   Clear
11:30 AM 93.2 °F 37.4 °F 14% 29.74 in - WNW 19.6 mph - N/A   Clear
12:00 PM 92 °F 35 °F 7% 29.73 in 25 mi WNW 20.7 mph - -   Partly Cloudy
12:00 PM 93.2 °F 35.6 °F 13% 29.71 in - WNW 20.7 mph - N/A   Clear
12:30 PM 93.2 °F 35.6 °F 13% 29.71 in - WNW 20.7 mph - N/A   Clear
1:00 PM 93.2 °F 33.8 °F 12% 29.68 in - WNW 17.3 mph - N/A   Clear
1:30 PM 95.0 °F 35.6 °F 12% 29.65 in - WNW 18.4 mph - N/A   Clear
2:00 PM 96 °F 34 °F 5% 29.65 in - NW 17.3 mph - -  
2:00 PM 95.0 °F 33.8 °F 12% 29.62 in - NW 17.3 mph - N/A   Clear
2:30 PM 95.0 °F 32.0 °F 11% 29.62 in - WNW 13.8 mph - N/A   Clear
3:00 PM 94 °F 34 °F 6% 29.62 in 25 mi WNW 15.0 mph - -   Partly Cloudy
3:00 PM 95.0 °F 33.8 °F 12% 29.59 in - WNW 15.0 mph - N/A   Clear
3:30 PM 93.2 °F 35.6 °F 13% 29.59 in - NW 15.0 mph - N/A   Clear
4:00 PM 96.8 °F 37.4 °F 13% 29.56 in - NW 15.0 mph - N/A   Clear
4:30 PM 93.2 °F 35.6 °F 13% 29.56 in - NW 12.7 mph - N/A   Clear
5:00 PM 92 °F 36 °F 7% 29.56 in - NNW 13.8 mph - -  
5:00 PM 91.4 °F 37.4 °F 15% 29.53 in - NNW 13.8 mph - N/A   Clear
5:30 PM 91.4 °F 39.2 °F 16% 29.53 in - NW 13.8 mph - N/A   Clear
6:00 PM 90 °F 37 °F 8% 29.55 in - NW 11.5 mph - -  
6:00 PM 91.4 °F 37.4 °F 15% 29.53 in 6.2 mi NW 11.5 mph - N/A   Mostly Cloudy
6:30 PM 89.6 °F 39.2 °F 17% 29.53 in 6.2 mi WNW 9.2 mph - N/A   Mostly Cloudy
7:00 PM 87.8 °F 39.2 °F 18% 29.59 in 6.2 mi NW 11.5 mph - N/A   Mostly Cloudy
7:30 PM 86.0 °F 46.4 °F 25% 29.59 in 6.2 mi West 8.1 mph - N/A Rain Light Rain
8:00 PM 84 °F 42 °F 13% 29.62 in - WSW 18.4 mph - -  
8:00 PM 84.2 °F 41.0 °F 22% 29.62 in - WSW 18.4 mph - N/A   Clear
8:30 PM 80.6 °F 50.0 °F 34% 29.62 in - SSW 4.6 mph - N/A   Clear
9:00 PM 79 °F 51 °F 26% 29.64 in - NW 1.2 mph - -  
9:00 PM 78.8 °F 50.0 °F 36% 29.62 in - NW 1.2 mph - N/A   Clear
9:30 PM 77.0 °F 51.8 °F 41% 29.68 in - South 4.6 mph - N/A   Clear
10:00 PM 75.2 °F 55.4 °F 50% 29.71 in 6.2 mi SSE 19.6 mph - N/A   Scattered Clouds
10:30 PM 71.6 °F 57.2 °F 60% 29.71 in 6.2 mi SSE 17.3 mph - N/A   Scattered Clouds
11:00 PM 70 °F 49 °F 37% 29.74 in - South 21.9 mph - -  
11:00 PM 69.8 °F 50.0 °F 49% 29.71 in 6.2 mi South 21.9 mph - N/A   Unknown
11:05 PM 69.8 °F 50.0 °F 49% 29.74 in 6.2 mi South 21.9 mph 33.4 mph N/A   Scattered Clouds
11:37 PM 69.8 °F 44.6 °F 40% 29.74 in 6.2 mi South 20.7 mph 32.2 mph N/A   Scattered Clouds